Location: Newark
(41.8922°N, 9.0050°E)
Time: 18:19:30
(UTC+00:00)

ISS - Pass Details

Date: 26 January 2020
Orbit: 416 x 422 km, 51.6° (Epoch: 17 February)

Event Time Altitude Azimuth Distance (km) Brightness Sun altitude
Rises 17:22:02 0° 264° (W) 2,372 2.1 -9.8°
Reaches altitude 10° 17:24:20 10° 276° (W) 1,508 0.3 -10.2°
Maximum altitude 17:27:18 28° 338° (NNW) 830 -2.2 -10.7°
Enters shadow 17:29:58 12° 36° (NE) 1,396 -1.6 -11.2°
